Location: Croydon
(51.3762°N, 0.0982°W)
Time: 08:14:48
(UTC+00:00)

Altair - Pass Details

Date: 15 November 2019
Orbit: 1502 x 1682 km, 47.2° (Epoch: 14 December)

Event Time Altitude Azimuth Distance (km) Brightness Sun altitude
Rises 07:43:42 0° 272° (W) 4,643 9.5 2.7°
Reaches altitude 10° 07:46:43 10° 270° (W) 3,670 9.0 3.0°
Maximum altitude 07:55:49 66° 191° (S) 1,653 8.0 4.2°
Drops below altitude 10° 08:05:13 10° 112° (ESE) 3,779 11.4 5.3°
Sets 08:08:22 0° 109° (ESE) 4,788 11.7 5.7°
